Broken Bow, NE

9:04 PM CDT on May 26, 2018 (GMT -0500)
Broken Bow Municipal

Weather History for KBBW - November, 2012

Change the Weather History Date:

Friday, November 30, 2012

  Actual Average Record
Temperature  
Mean Temperature 39 °F 29 °F  
Max Temperature 55 °F 41 °F 66 °F (1970)
Min Temperature 22 °F 16 °F -15 °F (1964)
Degree Days  
Heating Degree Days 26 36  
Month to date heating degree days 832 875  
Cooling Degree Days 0 0  
Month to date cooling degree days 0 0  
Year to date cooling degree days 1077 768  
Moisture  
Dew Point 26 °F    
Average Humidity 67    
Maximum Humidity 92    
Minimum Humidity 41    
Precipitation  
Precipitation 0.00 in 0.02 in 0.80 in (1981)
Sea Level Pressure  
Sea Level Pressure 30.02 in    
Wind  
Wind Speed 4 mph (SSE)    
Max Wind Speed 16 mph    
Max Gust Speed 20 mph    
Visibility 10 miles    
Events      
T = Trace of Precipitation, MM = Missing Value Source: NWS Daily Summary

Daily Weather History Graph

Daily Weather History Graph

Search for Another Location

Airport or City:

Astronomy

Nov. 30, 2012 Rise Set
Actual Time 7:44 AM CST 5:09 PM CST
Civil Twilight 7:14 AM CST 5:40 PM CST
Nautical Twilight 6:39 AM CST 6:14 PM CST
Astronomical Twilight 6:06 AM CST 6:48 PM CST
Moon 7:06 PM CST (11/30) 9:17 AM CST (11/30)
Length of Visible Light 10h 26m
Length of Day
9h 25m
Waning Gibbous, 96% of the Moon is Illuminated
Nov 30
Waning Gibbous
Dec 6
Last Quarter
Dec 13
New
Dec 19
First Quarter
Dec 28
Full

Hourly Weather History & Observations

Time (CST) Temp. Windchill Dew Point Humidity Pressure Visibility Wind Dir Wind Speed Gust Speed Precip Events Conditions
12:53 AM 35.1 °F - 28.0 °F 76% 30.04 in 10.0 mi Calm Calm - N/A   Clear
1:53 AM 27.0 °F - 23.0 °F 85% 30.05 in 10.0 mi Calm Calm - N/A   Clear
2:53 AM 26.1 °F - 23.0 °F 88% 30.05 in 10.0 mi Calm Calm - N/A   Clear
3:53 AM 21.9 °F - 19.0 °F 89% 30.07 in 10.0 mi Calm Calm - N/A   Clear
4:53 AM 21.9 °F 17.2 °F 19.0 °F 89% 30.07 in 10.0 mi North 3.5 mph - N/A   Clear
5:53 AM 23.0 °F - 19.9 °F 88% 30.07 in 10.0 mi Calm Calm - N/A   Clear
6:53 AM 21.9 °F - 19.0 °F 89% 30.10 in 10.0 mi Calm Calm - N/A   Clear
7:53 AM 23.0 °F - 19.9 °F 88% 30.11 in 10.0 mi Calm Calm - N/A   Clear
8:53 AM 28.9 °F - 25.0 °F 85% 30.10 in 10.0 mi Calm Calm - N/A   Clear
9:53 AM 33.1 °F - 28.0 °F 82% 30.10 in 10.0 mi Calm Calm - N/A   Clear
10:53 AM 37.0 °F 32.4 °F 28.9 °F 73% 30.10 in 10.0 mi SSE 5.8 mph - N/A   Clear
11:53 AM 43.0 °F 39.5 °F 32.0 °F 65% 30.07 in 10.0 mi ESE 5.8 mph - N/A   Clear
12:53 PM 48.0 °F - 32.0 °F 54% 30.01 in 10.0 mi SE 6.9 mph - N/A   Clear
1:53 PM 53.1 °F - 30.9 °F 43% 30.00 in 10.0 mi SSE 9.2 mph - N/A   Clear
2:53 PM 54.0 °F - 30.9 °F 41% 29.96 in 10.0 mi SSE 12.7 mph - N/A   Clear
3:53 PM 52.0 °F - 30.0 °F 43% 29.97 in 10.0 mi SSE 15.0 mph - N/A   Clear
4:53 PM 48.0 °F - 30.0 °F 50% 29.98 in 10.0 mi SSE 8.1 mph - N/A   Clear
5:53 PM 43.0 °F 37.7 °F 28.0 °F 56% 29.97 in 10.0 mi SE 9.2 mph - N/A   Clear
6:53 PM 37.9 °F 33.5 °F 26.1 °F 62% 29.97 in 10.0 mi South 5.8 mph - N/A   Clear
7:53 PM 37.0 °F 33.3 °F 27.0 °F 67% 29.95 in 10.0 mi SSE 4.6 mph - N/A   Clear
8:53 PM 33.1 °F - 25.0 °F 72% 29.95 in 10.0 mi Calm Calm - N/A   Clear
9:53 PM 35.1 °F - 27.0 °F 72% 29.94 in 10.0 mi Calm Calm - N/A   Clear
10:53 PM 33.1 °F - 26.1 °F 75% 29.92 in 10.0 mi Calm Calm - N/A   Clear
11:53 PM 37.0 °F 29.3 °F 28.9 °F 73% 29.88 in 10.0 mi South 11.5 mph - N/A   Clear